FW8369 Weather Reports


time (UTC)temp
C
wind
direction
speed
KPH
gust
KPH
rain 1hr
cm
rain 24hr
cm
rain mn
cm
humidity
%
barometer
mb
20260504081904 25 35 6.4 11.3 0.00 2.06 0.00 80 1013.5
20260504081404 25 23 3.2 11.3 0.00 2.06 0.00 80 1013.6
20260504080904 25 17 1.6 4.8 0.00 2.06 0.00 80 1013.7
20260504080404 25 8 4.8 12.9 0.00 2.08 0.00 79 1013.7
20260504070404 25 44 6.4 12.9 0.00 3.84 0.00 77 1014.7
20260504050404 27 38 3.2 4.8 0.00 6.32 0.00 69 1015.1
20260504045904 27 329 1.6 4.8 0.00 6.32 0.00 69 1015.1
20260504045404 27 17 1.6 4.8 0.00 6.32 0.00 70 1015.1
20260504044904 27 58 1.6 8.0 0.00 6.32 0.00 70 1015.1
20260504044404 26 37 1.6 8.0 0.00 6.32 0.00 70 1015.1
20260504043904 26 296 1.6 8.0 0.00 6.32 0.00 71 1015.1
20260504042903 26 11 1.6 4.8 0.00 6.32 0.00 71 1015.1
20260504042404 26 26 0.0 4.8 0.00 6.32 0.00 72 1015.2
20260504041904 26 55 4.8 12.9 0.00 6.32 0.00 71 1015.2
20260504041404 26 330 1.6 4.8 0.00 6.32 0.00 73 1015.2
20260504040904 26 24 3.2 8.0 0.00 6.32 0.00 73 1015.3
20260504040404 26 326 1.6 4.8 0.00 6.32 0.00 74 1015.5
20260504035904 26 48 1.6 4.8 0.00 6.32 0.00 74 1015.5
20260504035404 26 23 1.6 8.0 0.00 6.32 0.00 74 1015.5
20260504034404 26 61 4.8 12.9 0.00 6.32 0.00 74 1015.6
20260504033904 26 328 1.6 4.8 0.00 6.32 0.00 74 1015.5
20260504032903 26 327 1.6 4.8 0.00 6.32 0.00 73 1015.5
20260504032404 26 47 4.8 11.3 0.00 6.32 0.00 72 1015.4
20260504031905 26 5 4.8 12.9 0.00 6.32 0.00 72 1015.4
20260504030904 26 54 3.2 8.0 0.00 6.32 0.00 72 1015.5
20260504025904 26 343 0.0 1.6 0.00 6.32 0.00 72 1015.8
20260504025404 25 53 0.0 11.3 0.00 6.32 0.00 73 1015.9
20260504024904 25 54 6.4 16.1 0.00 6.32 0.00 73 1015.8
20260504023904 26 34 1.6 4.8 0.00 6.32 0.00 74 1015.7
20260504022904 25 59 4.8 9.7 0.00 6.32 0.00 74 1015.7
20260504022404 25 64 4.8 11.3 0.00 6.32 0.00 73 1015.7
20260504021904 25 68 3.2 14.5 0.00 6.32 0.00 73 1015.6
20260504021403 26 31 3.2 9.7 0.00 6.32 0.00 73 1015.4
20260504020404 26 42 4.8 8.0 0.00 6.32 0.00 71 1015.5
20260504015904 25 328 0.0 4.8 0.00 6.32 0.00 71 1015.6
20260504015403 25 335 0.0 4.8 0.00 6.32 0.00 71 1015.5
20260504014904 25 331 1.6 3.2 0.00 6.32 0.00 71 1015.4
20260504013903 25 7 1.6 4.8 0.00 6.32 0.00 71 1015.6
20260504012404 25 314 1.6 4.8 0.00 6.32 0.00 71 1015.3
20260504011904 25 38 3.2 4.8 0.00 6.32 0.00 71 1015.2
20260504011404 25 306 0.0 3.2 0.00 6.32 0.00 71 1015.2
20260504010904 25 307 1.6 8.0 0.00 6.32 0.00 72 1015.1
20260504010404 25 340 0.0 4.8 0.00 6.32 0.00 73 1015.0
20260504005904 24 64 3.2 4.8 0.00 6.32 0.00 73 1015.0
20260504005404 24 54 1.6 4.8 0.00 6.32 0.00 73 1015.0
20260504004904 24 40 1.6 4.8 0.00 6.32 0.00 74 1015.0
20260504004404 24 323 1.6 3.2 0.00 6.32 0.00 75 1014.9
20260504003904 24 349 1.6 4.8 0.00 6.32 0.00 75 1015.1
20260504003404 24 60 3.2 4.8 0.00 6.32 0.00 75 1015.1
20260504002404 23 49 0.0 3.2 0.00 6.32 0.00 76 1015.1
20260504001904 23 55 3.2 4.8 0.00 6.32 0.00 77 1015.0
20260504001405 23 51 3.2 8.0 0.00 6.32 0.00 77 1014.9
20260504000904 23 19 0.0 8.0 0.00 6.32 0.00 78 1014.8
20260504000404 23 350 3.2 4.8 0.00 6.32 0.00 77 1014.9
20260503235404 23 312 0.0 3.2 0.00 6.32 0.00 77 1014.6
20260503234404 23 281 0.0 0.0 0.00 6.32 0.00 78 1014.5
20260503233404 23 8 0.0 4.8 0.00 6.32 0.00 81 1014.3
20260503232904 23 50 1.6 3.2 0.00 6.32 0.00 82 1014.1
20260503232404 23 347 0.0 0.0 0.00 6.32 0.00 82 1014.3
20260503231905 23 359 0.0 0.0 0.00 6.32 0.00 83 1014.2
20260503231404 23 27 1.6 4.8 0.00 6.32 0.00 82 1014.1
20260503230904 23 21 0.0 4.8 0.00 6.32 0.00 81 1013.9
20260503230404 23 1 0.0 0.0 0.00 6.32 0.00 81 1014.0
20260503225904 23 5 0.0 4.8 0.00 6.32 0.00 80 1013.9
20260503225404 23 318 0.0 1.6 0.00 6.32 0.00 79 1013.7
20260503224404 23 323 0.0 1.6 0.00 6.32 0.00 80 1013.5
20260503223904 23 325 0.0 1.6 0.00 6.32 0.00 80 1013.4
20260503223404 23 327 0.0 3.2 0.00 6.32 0.00 81 1013.4
20260503222904 23 329 0.0 1.6 0.00 6.32 0.00 81 1013.3
20260503222404 23 334 0.0 1.6 0.00 6.32 0.00 82 1013.2
20260503221404 23 333 0.0 1.6 0.00 6.32 0.00 83 1013.1
20260503220904 23 34 0.0 4.8 0.00 6.32 0.00 84 1013.0
20260503220404 23 23 0.0 4.8 0.00 6.32 0.00 85 1012.7
20260503215905 23 339 0.0 0.0 0.00 6.32 0.00 84 1012.6
20260503215404 23 340 0.0 0.0 0.00 6.32 0.00 84 1012.5
20260503214904 23 340 0.0 0.0 0.00 6.32 0.00 83 1012.5
20260503214404 23 341 0.0 0.0 0.00 6.32 0.00 83 1012.4
20260503213903 23 341 0.0 0.0 0.00 6.32 0.00 83 1012.4
20260503213404 23 341 0.0 3.2 0.00 6.32 0.00 83 1012.2
20260503212904 23 27 1.6 4.8 0.00 6.32 0.00 85 1012.0
20260503212404 23 0 0.0 4.8 0.00 6.32 0.00 85 1011.9
20260503211904 23 48 1.6 4.8 0.00 6.32 0.00 86 1011.8
20260503211404 23 58 1.6 4.8 0.00 6.32 0.00 87 1011.8
20260503210904 22 312 0.0 1.6 0.00 6.32 0.00 88 1011.8
20260503210404 22 331 0.0 3.2 0.00 6.32 0.00 88 1011.6
20260503205904 22 352 1.6 4.8 0.00 6.32 0.00 88 1011.6
20260503205404 22 329 0.0 3.2 0.00 6.32 0.00 89 1011.5
20260503204905 22 337 1.6 1.6 0.00 6.32 0.00 89 1011.4
20260503204404 22 345 0.0 1.6 0.00 6.32 0.00 89 1011.4
20260503203904 22 0 1.6 4.8 0.00 6.32 0.00 89 1011.4
20260503203403 22 7 1.6 4.8 0.00 6.32 0.00 89 1011.3
20260503202404 23 347 1.6 4.8 0.00 6.32 0.00 89 1011.4
20260503201904 23 306 0.0 1.6 0.00 6.32 0.00 89 1011.3
20260503201404 23 306 0.0 0.0 0.00 6.32 0.00 89 1011.2
20260503200904 23 306 0.0 0.0 0.00 6.32 0.00 90 1011.1
20260503200404 23 306 0.0 0.0 0.00 6.32 0.00 90 1011.3
20260503195903 22 306 0.0 0.0 0.00 6.32 0.00 90 1011.3
20260503195404 22 306 0.0 0.0 0.00 6.32 0.00 89 1011.3
20260503194904 22 306 0.0 0.0 0.00 6.32 0.00 90 1011.4
20260503194404 22 306 0.0 0.0 0.00 6.32 0.00 90 1011.2
20260503193904 22 306 0.0 0.0 0.00 6.32 0.00 90 1011.5
20260503192904 22 306 0.0 0.0 0.00 6.32 0.00 91 1011.7
20260503192404 22 306 0.0 0.0 0.00 6.32 0.00 91 1011.7
20260503191904 22 306 0.0 1.6 0.00 6.32 0.00 91 1011.7
20260503191403 22 306 0.0 1.6 0.00 6.32 0.00 91 1011.7
20260503190404 22 306 0.0 0.0 0.00 6.32 0.00 91 1011.7
20260503185404 22 314 1.6 4.8 0.00 6.32 0.00 91 1011.7
20260503184903 22 304 1.6 1.6 0.00 6.32 0.00 91 1011.7
20260503184404 22 303 1.6 1.6 0.00 6.32 0.00 91 1011.7
20260503183904 22 303 0.0 0.0 0.00 6.32 0.00 91 1011.7
20260503183404 22 303 0.0 1.6 0.00 6.32 0.00 91 1011.9
20260503182904 22 268 0.0 3.2 0.00 6.32 0.00 91 1011.9
20260503182404 22 340 1.6 4.8 0.00 6.32 0.00 91 1011.9
20260503181904 22 351 0.0 0.0 0.00 6.32 0.00 91 1011.9
20260503181403 22 351 0.0 0.0 0.00 6.32 0.00 91 1012.1
20260503180904 22 352 0.0 1.6 0.00 6.32 0.00 91 1012.1
20260503180403 22 352 1.6 1.6 0.00 6.32 0.00 91 1012.2
20260503175904 22 352 1.6 1.6 0.00 6.32 0.00 91 1012.3
20260503175404 22 354 1.6 3.2 0.00 6.32 0.00 92 1012.4
20260503174903 22 347 0.0 0.0 0.00 6.32 0.00 92 1012.4
20260503174404 22 347 0.0 0.0 0.00 6.32 0.00 92 1012.6
20260503173404 22 24 1.6 3.2 0.00 6.32 0.00 92 1012.7
20260503172904 22 38 3.2 4.8 0.00 6.32 0.00 92 1012.8
20260503171904 23 346 1.6 4.8 0.00 6.32 0.00 92 1012.9
20260503171405 23 346 3.2 3.2 0.00 6.32 0.00 92 1013.0
20260503170404 23 320 1.6 3.2 0.00 6.32 0.00 92 1013.1
20260503150904 23 52 3.2 4.8 0.23 6.22 6.22 94 1013.3
20260503150404 23 9 0.0 3.2 0.25 6.20 6.20 94 1013.3
20260503131404 23 341 1.6 3.2 0.23 5.51 5.51 97 1013.5
20260503130904 23 343 0.0 1.6 0.20 5.49 5.49 97 1013.4
20260503130404 23 345 0.0 1.6 0.20 5.49 5.49 97 1013.3
20260503110404 23 347 1.6 3.2 0.25 5.13 5.13 96 1011.2